• In Kazakhstan
  • List of Countries
  • For 7 days
  • Water Temperature
  • Weather Map
  • News
  • Weather Widgets
  • user-avatar
    Login

    Hourly Weather Sevan

    Today, 22 September, Sunday

    Time Temperature Precipitation Wind Pressure Humidity
    00:00 +11°C° 0 mm 3 mps 640 mmHg 55%
    01:00 +11°C° 0 mm 3 mps 640 mmHg 54%
    02:00 +10°C° 0 mm 2 mps 641 mmHg 52%
    03:00 +9°C° 0 mm 2 mps 641 mmHg 52%
    04:00 +8°C° 0 mm 2 mps 641 mmHg 53%
    05:00 +8°C° 0 mm 2 mps 641 mmHg 53%
    06:00 +8°C° 0 mm 1 mps 641 mmHg 54%
    07:00 +10°C° 0 mm 1 mps 642 mmHg 49%
    08:00 +12°C° 0 mm 2 mps 643 mmHg 43%
    09:00 +13°C° 0 mm 2 mps 644 mmHg 37%
    10:00 +14°C° 0 mm 2 mps 644 mmHg 34%
    11:00 +16°C° 0 mm 2 mps 645 mmHg 31%
    12:00 +17°C° 0 mm 2 mps 645 mmHg 29%
    13:00 +18°C° 0 mm 2 mps 645 mmHg 27%
    14:00 +18°C° 0 mm 2 mps 644 mmHg 26%
    15:00 +19°C° 0 mm 2 mps 644 mmHg 25%
    16:00 +18°C° 0 mm 1 mps 644 mmHg 29%
    17:00 +15°C° 0 mm 1 mps 643 mmHg 34%
    18:00 +14°C° 0 mm 1 mps 643 mmHg 38%
    19:00 +13°C° 0 mm 1 mps 643 mmHg 43%
    20:00 +12°C° 0 mm 2 mps 643 mmHg 49%
    21:00 +10°C° 0 mm 2 mps 643 mmHg 54%
    22:00 +10°C° 0 mm 2 mps 643 mmHg 53%
    23:00 +10°C° 0 mm 2 mps 643 mmHg 52%

    Tomorrow, 23 September, Monday

    Time Temperature Precipitation Wind Pressure Humidity
    00:00 +9°C° 0 mm 2 mps 643 mmHg 51%
    01:00 +9°C° 0 mm 2 mps 642 mmHg 51%
    02:00 +9°C° 0 mm 2 mps 642 mmHg 51%
    03:00 +10°C° 0 mm 1 mps 642 mmHg 51%
    04:00 +9°C° 0 mm 1 mps 642 mmHg 50%
    05:00 +9°C° 0 mm 1 mps 642 mmHg 49%
    06:00 +9°C° 0 mm 1 mps 641 mmHg 48%
    07:00 +11°C° 0 mm 1 mps 642 mmHg 43%
    08:00 +14°C° 0 mm 1 mps 643 mmHg 38%
    09:00 +16°C° 0 mm 2 mps 643 mmHg 33%
    10:00 +17°C° 0 mm 2 mps 643 mmHg 31%
    11:00 +19°C° 0 mm 2 mps 643 mmHg 29%
    12:00 +20°C° 0 mm 3 mps 643 mmHg 28%
    13:00 +20°C° 0 mm 2 mps 643 mmHg 27%
    14:00 +21°C° 0 mm 2 mps 642 mmHg 26%
    15:00 +21°C° 0 mm 2 mps 642 mmHg 25%
    16:00 +21°C° 0 mm 1 mps 642 mmHg 29%
    17:00 +19°C° 0 mm 1 mps 641 mmHg 33%
    18:00 +15°C° 0 mm 0 mps 640 mmHg 38%
    19:00 +15°C° 0 mm 1 mps 641 mmHg 39%
    20:00 +15°C° 0 mm 1 mps 641 mmHg 39%
    21:00 +15°C° 0 mm 2 mps 641 mmHg 40%
    22:00 +14°C° 0 mm 2 mps 641 mmHg 42%
    23:00 +14°C° 0 mm 2 mps 641 mmHg 44%

    Day after tomorrow, 24 September, Tuesday

    Time Temperature Precipitation Wind Pressure Humidity
    00:00 +13°C° 0 mm 2 mps 641 mmHg 46%
    01:00 +13°C° 0 mm 2 mps 641 mmHg 47%
    02:00 +13°C° 0 mm 2 mps 641 mmHg 48%
    03:00 +12°C° 0 mm 2 mps 641 mmHg 49%
    04:00 +12°C° 0 mm 2 mps 641 mmHg 50%
    05:00 +12°C° 0 mm 2 mps 641 mmHg 50%
    06:00 +11°C° 0 mm 1 mps 641 mmHg 50%
    07:00 +14°C° 0 mm 1 mps 642 mmHg 44%
    08:00 +16°C° 0 mm 1 mps 643 mmHg 39%
    09:00 +19°C° 0 mm 2 mps 644 mmHg 33%
    10:00 +20°C° 0 mm 2 mps 643 mmHg 29%
    11:00 +21°C° 0 mm 3 mps 643 mmHg 26%
    12:00 +22°C° 0 mm 3 mps 643 mmHg 22%
    13:00 +22°C° 0 mm 3 mps 643 mmHg 20%
    14:00 +24°C° 0 mm 3 mps 643 mmHg 19%
    15:00 +24°C° 0 mm 3 mps 643 mmHg 17%
    16:00 +21°C° 0 mm 2 mps 642 mmHg 21%
    17:00 +19°C° 0 mm 2 mps 641 mmHg 25%
    18:00 +18°C° 0 mm 1 mps 641 mmHg 29%
    19:00 +17°C° 0 mm 2 mps 641 mmHg 30%
    20:00 +16°C° 0 mm 2 mps 641 mmHg 32%
    21:00 +16°C° 0 mm 3 mps 642 mmHg 34%
    22:00 +15°C° 0 mm 2 mps 641 mmHg 36%
    23:00 +15°C° 0 mm 2 mps 641 mmHg 38%

    25 September, Wednesday

    Time Temperature Precipitation Wind Pressure Humidity
    00:00 +14°C° 0 mm 2 mps 641 mmHg 40%
    01:00 +14°C° 0 mm 2 mps 641 mmHg 41%
    02:00 +14°C° 0 mm 2 mps 641 mmHg 41%
    03:00 +13°C° 0 mm 2 mps 640 mmHg 41%
    04:00 +13°C° 0 mm 1 mps 640 mmHg 40%
    05:00 +13°C° 0 mm 1 mps 640 mmHg 39%
    06:00 +12°C° 0 mm 1 mps 640 mmHg 38%
    07:00 +15°C° 0 mm 2 mps 641 mmHg 33%
    08:00 +18°C° 0 mm 2 mps 642 mmHg 28%
    09:00 +20°C° 0 mm 2 mps 643 mmHg 23%
    10:00 +21°C° 0 mm 2 mps 643 mmHg 22%
    11:00 +22°C° 0 mm 3 mps 643 mmHg 20%
    12:00 +24°C° 0 mm 3 mps 643 mmHg 19%
    13:00 +25°C° 0 mm 3 mps 642 mmHg 18%
    14:00 +25°C° 0 mm 3 mps 642 mmHg 17%
    15:00 +26°C° 0 mm 3 mps 642 mmHg 16%
    16:00 +24°C° 0 mm 3 mps 641 mmHg 19%
    17:00 +21°C° 0 mm 2 mps 641 mmHg 21%
    18:00 +20°C° 0 mm 1 mps 640 mmHg 24%
    19:00 +19°C° 0 mm 2 mps 641 mmHg 24%
    20:00 +18°C° 0 mm 2 mps 641 mmHg 24%
    21:00 +18°C° 0 mm 2 mps 641 mmHg 24%
    22:00 +18°C° 0 mm 2 mps 641 mmHg 24%
    23:00 +18°C° 0 mm 2 mps 641 mmHg 24%

    26 September, Thursday

    Time Temperature Precipitation Wind Pressure Humidity
    00:00 +19°C° 0 mm 1 mps 642 mmHg 24%
    01:00 +18°C° 0 mm 1 mps 641 mmHg 25%
    02:00 +17°C° 0 mm 2 mps 641 mmHg 26%
    03:00 +16°C° 0 mm 2 mps 641 mmHg 28%
    04:00 +16°C° 0 mm 2 mps 641 mmHg 29%
    05:00 +15°C° 0 mm 2 mps 641 mmHg 30%
    06:00 +15°C° 0 mm 2 mps 641 mmHg 32%
    07:00 +17°C° 0 mm 2 mps 642 mmHg 29%
    08:00 +20°C° 0 mm 3 mps 643 mmHg 26%
    09:00 +22°C° 0 mm 3 mps 644 mmHg 23%
    10:00 +23°C° 0 mm 4 mps 644 mmHg 22%
    11:00 +25°C° 0 mm 4 mps 644 mmHg 21%
    12:00 +26°C° 0 mm 5 mps 644 mmHg 20%
    13:00 +27°C° 0 mm 4 mps 644 mmHg 19%
    14:00 +27°C° 0 mm 4 mps 643 mmHg 19%
    15:00 +28°C° 0 mm 4 mps 643 mmHg 18%
    16:00 +26°C° 0 mm 3 mps 642 mmHg 21%
    17:00 +24°C° 0 mm 2 mps 642 mmHg 23%
    18:00 +22°C° 0 mm 1 mps 641 mmHg 26%
    19:00 +21°C° 0 mm 1 mps 641 mmHg 27%
    20:00 +19°C° 0 mm 2 mps 641 mmHg 28%
    21:00 +19°C° 0 mm 2 mps 642 mmHg 30%
    22:00 +18°C° 0 mm 2 mps 641 mmHg 31%
    23:00 +18°C° 0 mm 2 mps 641 mmHg 33%

    27 September, Friday

    Time Temperature Precipitation Wind Pressure Humidity
    00:00 +17°C° 0 mm 2 mps 641 mmHg 34%
    01:00 +17°C° 0 mm 2 mps 641 mmHg 35%
    02:00 +16°C° 0 mm 2 mps 641 mmHg 35%
    03:00 +16°C° 0 mm 2 mps 641 mmHg 36%
    04:00 +16°C° 0 mm 2 mps 641 mmHg 37%
    05:00 +15°C° 0 mm 1 mps 641 mmHg 38%
    06:00 +15°C° 0 mm 1 mps 641 mmHg 39%
    07:00 +18°C° 0 mm 2 mps 641 mmHg 34%
    08:00 +20°C° 0 mm 2 mps 642 mmHg 30%
    09:00 +24°C° 0 mm 3 mps 643 mmHg 26%
    10:00 +25°C° 0 mm 4 mps 643 mmHg 25%
    11:00 +26°C° 0 mm 4 mps 643 mmHg 24%
    12:00 +27°C° 0 mm 5 mps 643 mmHg 22%
    13:00 +27°C° 0 mm 5 mps 642 mmHg 22%
    14:00 +27°C° 0 mm 5 mps 642 mmHg 22%
    15:00 +28°C° 0 mm 5 mps 641 mmHg 21%
    16:00 +26°C° 0 mm 4 mps 641 mmHg 23%
    17:00 +24°C° 0 mm 3 mps 640 mmHg 26%
    18:00 +21°C° 0 mm 2 mps 639 mmHg 28%
    19:00 +21°C° 0 mm 2 mps 640 mmHg 29%
    20:00 +20°C° 0 mm 3 mps 640 mmHg 30%
    21:00 +19°C° 0 mm 3 mps 640 mmHg 31%
    22:00 +18°C° 0 mm 2 mps 640 mmHg 35%
    23:00 +18°C° 0 mm 2 mps 640 mmHg 38%
    Show more